| time (UTC) | temp F | wind direction | speed MPH | gust MPH | rain 1hr in | rain 24hr in | rain mn in | humidity % | barometer mb |
| 20260504151006 | 60 | 291 | 7.0 | 21.0 | 0.00 | 0.00 | 0.00 | 49 | 995.2 |
| 20260504150506 | 60 | 279 | 6.0 | 18.0 | 0.00 | 0.00 | 0.00 | 49 | 995.3 |
| 20260504150451 | 60 | 296 | 5.0 | 18.0 | 0.00 | 0.00 | 0.00 | 49 | 995.3 |
| 20260504140936 | 58 | 292 | 6.0 | 17.0 | 0.00 | 0.00 | 0.00 | 50 | 995.1 |
| 20260504140648 | 58 | 18 | 6.0 | 17.0 | 0.00 | 0.00 | 0.00 | 50 | 995.1 |
| 20260504130403 | 59 | 288 | 7.0 | 18.0 | 0.00 | 0.00 | 0.00 | 49 | 994.4 |
| 20260504110325 | 61 | 217 | 9.0 | 21.0 | 0.00 | 0.00 | 0.00 | 44 | 992.3 |
| 20260504100306 | 60 | 169 | 5.0 | 11.0 | 0.00 | 0.00 | 0.00 | 43 | 992.4 |
| 20260504081704 | 58 | 184 | 4.0 | 9.0 | 0.00 | 0.00 | 0.00 | 46 | 994.5 |
| 20260504081201 | 58 | 134 | 4.0 | 9.0 | 0.00 | 0.00 | 0.00 | 46 | 994.6 |
| 20260504080658 | 58 | 180 | 4.0 | 11.0 | 0.00 | 0.00 | 0.00 | 46 | 994.7 |
| 20260504080152 | 58 | 178 | 4.0 | 11.0 | 0.00 | 0.00 | 0.00 | 47 | 994.8 |
| 20260504060220 | 56 | 202 | 3.0 | 8.0 | 0.00 | 0.00 | 0.00 | 50 | 997.1 |
| 20260504050601 | 54 | 167 | 2.0 | 5.0 | 0.00 | 0.00 | 0.00 | 53 | 998.3 |
| 20260504045544 | 54 | 171 | 1.0 | 6.0 | 0.00 | 0.00 | 0.00 | 54 | 998.5 |
| 20260504045046 | 54 | 173 | 1.0 | 6.0 | 0.00 | 0.00 | 0.00 | 54 | 998.6 |
| 20260504044539 | 54 | 172 | 1.0 | 5.0 | 0.00 | 0.00 | 0.00 | 54 | 998.6 |
| 20260504044035 | 54 | 173 | 2.0 | 5.0 | 0.00 | 0.00 | 0.00 | 54 | 998.7 |
| 20260504043809 | 54 | 178 | 2.0 | 6.0 | 0.00 | 0.00 | 0.00 | 54 | 998.9 |
| 20260504043034 | 54 | 180 | 1.0 | 6.0 | 0.00 | 0.00 | 0.00 | 55 | 998.9 |
| 20260504042751 | 54 | 184 | 1.0 | 4.0 | 0.00 | 0.00 | 0.00 | 55 | 999.0 |
| 20260504042029 | 54 | 182 | 1.0 | 4.0 | 0.00 | 0.00 | 0.00 | 55 | 999.1 |
| 20260504041525 | 54 | 189 | 1.0 | 4.0 | 0.00 | 0.00 | 0.00 | 55 | 999.2 |
| 20260504041019 | 54 | 190 | 1.0 | 4.0 | 0.00 | 0.00 | 0.00 | 55 | 999.4 |
| 20260504040519 | 54 | 190 | 1.0 | 4.0 | 0.00 | 0.00 | 0.00 | 55 | 999.5 |
| 20260504040020 | 54 | 205 | 1.0 | 3.0 | 0.00 | 0.00 | 0.00 | 54 | 999.6 |
| 20260504035508 | 54 | 219 | 1.0 | 3.0 | 0.00 | 0.00 | 0.00 | 53 | 999.7 |
| 20260504035006 | 54 | 221 | 0.0 | 2.0 | 0.00 | 0.00 | 0.00 | 53 | 1000.0 |
| 20260504035000 | 55 | 221 | 0.0 | 2.0 | 0.00 | 0.00 | 0.00 | 52 | 1000.0 |
| 20260504034447 | 55 | 221 | 0.0 | 2.0 | 0.00 | 0.00 | 0.00 | 52 | 1000.1 |
| 20260504033440 | 55 | 221 | 0.0 | 2.0 | 0.00 | 0.00 | 0.00 | 52 | 1000.2 |
| 20260504032937 | 56 | 221 | 0.0 | 2.0 | 0.00 | 0.00 | 0.00 | 51 | 1000.3 |
| 20260504032923 | 56 | 233 | 0.0 | 2.0 | 0.00 | 0.00 | 0.00 | 51 | 1000.4 |
| 20260504031908 | 56 | 233 | 0.0 | 1.0 | 0.00 | 0.00 | 0.00 | 49 | 1000.4 |
| 20260504031405 | 56 | 233 | 0.0 | 1.0 | 0.00 | 0.00 | 0.00 | 49 | 1000.5 |
| 20260504031125 | 57 | 233 | 0.0 | 1.0 | 0.00 | 0.00 | 0.00 | 49 | 1000.6 |
| 20260504030857 | 57 | 233 | 0.0 | 2.0 | 0.00 | 0.00 | 0.00 | 48 | 1000.7 |
| 20260504025853 | 57 | 233 | 0.0 | 2.0 | 0.00 | 0.00 | 0.00 | 48 | 1000.7 |
| 20260504025617 | 58 | 233 | 1.0 | 2.0 | 0.00 | 0.00 | 0.00 | 49 | 1000.8 |
| 20260504024839 | 58 | 233 | 1.0 | 2.0 | 0.00 | 0.00 | 0.00 | 48 | 1000.8 |
| 20260504024533 | 58 | 233 | 0.0 | 2.0 | 0.00 | 0.00 | 0.00 | 47 | 1000.8 |
| 20260504023811 | 58 | 233 | 1.0 | 4.0 | 0.00 | 0.00 | 0.00 | 47 | 1000.9 |
| 20260504023308 | 59 | 233 | 1.0 | 4.0 | 0.00 | 0.00 | 0.00 | 45 | 1000.9 |
| 20260504022804 | 59 | 230 | 1.0 | 4.0 | 0.00 | 0.00 | 0.00 | 46 | 1001.1 |
| 20260504022304 | 59 | 230 | 1.0 | 4.0 | 0.00 | 0.00 | 0.00 | 43 | 1001.1 |
| 20260504021805 | 59 | 229 | 1.0 | 4.0 | 0.00 | 0.00 | 0.00 | 43 | 1001.1 |
| 20260504021249 | 60 | 229 | 1.0 | 3.0 | 0.00 | 0.00 | 0.00 | 45 | 1001.1 |
| 20260504020750 | 60 | 230 | 1.0 | 3.0 | 0.00 | 0.00 | 0.00 | 44 | 1001.1 |
| 20260504020246 | 60 | 230 | 0.0 | 2.0 | 0.00 | 0.00 | 0.00 | 45 | 1001.0 |
| 20260504015723 | 61 | 231 | 0.0 | 2.0 | 0.00 | 0.00 | 0.00 | 42 | 1001.0 |
| 20260504015225 | 62 | 231 | 0.0 | 2.0 | 0.00 | 0.00 | 0.00 | 43 | 1001.0 |
| 20260504014718 | 62 | 230 | 0.0 | 2.0 | 0.00 | 0.00 | 0.00 | 41 | 1001.0 |
| 20260504014440 | 63 | 230 | 0.0 | 3.0 | 0.00 | 0.00 | 0.00 | 40 | 1001.0 |
| 20260504013706 | 64 | 230 | 0.0 | 3.0 | 0.00 | 0.00 | 0.00 | 41 | 1001.0 |
| 20260504013206 | 64 | 230 | 0.0 | 3.0 | 0.00 | 0.00 | 0.00 | 40 | 1001.0 |
| 20260504012641 | 65 | 231 | 1.0 | 3.0 | 0.00 | 0.00 | 0.00 | 39 | 1001.1 |
| 20260504012623 | 65 | 230 | 1.0 | 4.0 | 0.00 | 0.00 | 0.00 | 34 | 1001.1 |
| 20260504011641 | 66 | 230 | 1.0 | 4.0 | 0.00 | 0.00 | 0.00 | 34 | 1001.1 |
| 20260504011400 | 66 | 229 | 2.0 | 4.0 | 0.00 | 0.00 | 0.00 | 32 | 1001.1 |
| 20260504010639 | 67 | 251 | 2.0 | 4.0 | 0.00 | 0.00 | 0.00 | 32 | 1001.1 |
| 20260504010133 | 67 | 255 | 2.0 | 7.0 | 0.00 | 0.00 | 0.00 | 32 | 1001.1 |
| 20260504005604 | 67 | 252 | 3.0 | 7.0 | 0.00 | 0.00 | 0.00 | 32 | 1001.2 |
| 20260504005334 | 67 | 255 | 3.0 | 9.0 | 0.00 | 0.00 | 0.00 | 31 | 1001.3 |
| 20260504004604 | 68 | 263 | 5.0 | 10.0 | 0.00 | 0.00 | 0.00 | 29 | 1001.2 |
| 20260504004047 | 68 | 258 | 5.0 | 10.0 | 0.00 | 0.00 | 0.00 | 30 | 1001.3 |
| 20260504003543 | 68 | 255 | 5.0 | 12.0 | 0.00 | 0.00 | 0.00 | 29 | 1001.3 |
| 20260504003040 | 68 | 216 | 5.0 | 12.0 | 0.00 | 0.00 | 0.00 | 29 | 1001.4 |
| 20260504002538 | 68 | 264 | 5.0 | 11.0 | 0.00 | 0.00 | 0.00 | 30 | 1001.4 |
| 20260504002036 | 69 | 224 | 4.0 | 11.0 | 0.00 | 0.00 | 0.00 | 32 | 1001.4 |
| 20260504001535 | 69 | 252 | 5.0 | 11.0 | 0.00 | 0.00 | 0.00 | 31 | 1001.5 |
| 20260504001254 | 69 | 292 | 4.0 | 12.0 | 0.00 | 0.00 | 0.00 | 32 | 1001.5 |
| 20260504000745 | 69 | 254 | 4.0 | 12.0 | 0.00 | 0.00 | 0.00 | 32 | 1001.5 |
| 20260504000027 | 69 | 271 | 5.0 | 12.0 | 0.00 | 0.00 | 0.00 | 30 | 1001.6 |
| 20260503235521 | 69 | 289 | 5.0 | 12.0 | 0.00 | 0.00 | 0.00 | 30 | 1001.5 |
| 20260503235017 | 70 | 269 | 5.0 | 12.0 | 0.00 | 0.00 | 0.00 | 29 | 1001.5 |
| 20260503234725 | 70 | 269 | 4.0 | 12.0 | 0.00 | 0.00 | 0.00 | 28 | 1001.4 |
| 20260503234006 | 70 | 277 | 5.0 | 12.0 | 0.00 | 0.00 | 0.00 | 30 | 1001.5 |
| 20260503233506 | 71 | 232 | 7.0 | 16.0 | 0.00 | 0.00 | 0.00 | 29 | 1001.6 |
| 20260503233006 | 71 | 263 | 6.0 | 16.0 | 0.00 | 0.00 | 0.00 | 29 | 1001.6 |
| 20260503232508 | 72 | 185 | 4.0 | 12.0 | 0.00 | 0.00 | 0.00 | 28 | 1001.6 |
| 20260503232003 | 72 | 301 | 4.0 | 11.0 | 0.00 | 0.00 | 0.00 | 27 | 1001.7 |
| 20260503231726 | 72 | 278 | 4.0 | 11.0 | 0.00 | 0.00 | 0.00 | 28 | 1001.6 |
| 20260503231002 | 72 | 215 | 4.0 | 8.0 | 0.00 | 0.00 | 0.00 | 27 | 1001.7 |
| 20260503230504 | 72 | 276 | 5.0 | 16.0 | 0.00 | 0.00 | 0.00 | 27 | 1001.7 |
| 20260503225957 | 72 | 306 | 7.0 | 16.0 | 0.00 | 0.00 | 0.00 | 29 | 1001.8 |
| 20260503225455 | 72 | 260 | 5.0 | 14.0 | 0.00 | 0.00 | 0.00 | 26 | 1001.8 |
| 20260503224954 | 72 | 280 | 4.0 | 10.0 | 0.00 | 0.00 | 0.00 | 27 | 1001.9 |
| 20260503224454 | 72 | 294 | 4.0 | 10.0 | 0.00 | 0.00 | 0.00 | 28 | 1001.9 |
| 20260503223948 | 72 | 252 | 4.0 | 11.0 | 0.00 | 0.00 | 0.00 | 29 | 1002.0 |
| 20260503223711 | 73 | 329 | 4.0 | 11.0 | 0.00 | 0.00 | 0.00 | 28 | 1001.9 |
| 20260503222947 | 72 | 340 | 3.0 | 9.0 | 0.00 | 0.00 | 0.00 | 27 | 1001.9 |
| 20260503222449 | 73 | 317 | 3.0 | 9.0 | 0.00 | 0.00 | 0.00 | 28 | 1002.0 |
| 20260503221946 | 72 | 19 | 4.0 | 12.0 | 0.00 | 0.00 | 0.00 | 27 | 1001.9 |
| 20260503221708 | 72 | 293 | 3.0 | 12.0 | 0.00 | 0.00 | 0.00 | 26 | 1002.0 |
| 20260503220941 | 72 | 329 | 3.0 | 11.0 | 0.00 | 0.00 | 0.00 | 28 | 1002.0 |
| 20260503220439 | 73 | 305 | 4.0 | 11.0 | 0.00 | 0.00 | 0.00 | 27 | 1002.1 |
| 20260503215937 | 72 | 283 | 5.0 | 11.0 | 0.00 | 0.00 | 0.00 | 27 | 1002.1 |
| 20260503215432 | 72 | 268 | 4.0 | 11.0 | 0.00 | 0.00 | 0.00 | 28 | 1002.1 |
| 20260503214934 | 72 | 176 | 4.0 | 9.0 | 0.00 | 0.00 | 0.00 | 27 | 1002.2 |
| 20260503214430 | 72 | 19 | 4.0 | 13.0 | 0.00 | 0.00 | 0.00 | 27 | 1002.3 |
| 20260503214206 | 72 | 331 | 4.0 | 13.0 | 0.00 | 0.00 | 0.00 | 29 | 1002.3 |
| 20260503213419 | 72 | 277 | 4.0 | 13.0 | 0.00 | 0.00 | 0.00 | 28 | 1002.3 |
| 20260503212923 | 71 | 251 | 4.0 | 13.0 | 0.00 | 0.00 | 0.00 | 29 | 1002.4 |
| 20260503212423 | 71 | 281 | 4.0 | 12.0 | 0.00 | 0.00 | 0.00 | 27 | 1002.5 |
| 20260503211919 | 71 | 307 | 5.0 | 13.0 | 0.00 | 0.00 | 0.00 | 28 | 1002.6 |
| 20260503211410 | 71 | 350 | 6.0 | 14.0 | 0.00 | 0.00 | 0.00 | 28 | 1002.7 |
| 20260503211133 | 71 | 305 | 5.0 | 14.0 | 0.00 | 0.00 | 0.00 | 29 | 1002.7 |
| 20260503210407 | 70 | 313 | 4.0 | 14.0 | 0.00 | 0.00 | 0.00 | 28 | 1002.7 |
| 20260503210133 | 71 | 288 | 4.0 | 11.0 | 0.00 | 0.00 | 0.00 | 30 | 1002.7 |
| 20260503205621 | 71 | 298 | 5.0 | 11.0 | 0.00 | 0.00 | 0.00 | 27 | 1002.8 |
| 20260503204858 | 71 | 324 | 5.0 | 13.0 | 0.00 | 0.00 | 0.00 | 28 | 1002.9 |
| 20260503204355 | 70 | 346 | 5.0 | 13.0 | 0.00 | 0.00 | 0.00 | 29 | 1002.9 |
| 20260503204343 | 71 | 330 | 5.0 | 13.0 | 0.00 | 0.00 | 0.00 | 28 | 1003.0 |
| 20260503203351 | 70 | 331 | 6.0 | 15.0 | 0.00 | 0.00 | 0.00 | 30 | 1003.0 |
| 20260503202849 | 70 | 309 | 5.0 | 15.0 | 0.00 | 0.00 | 0.00 | 28 | 1003.0 |
| 20260503202611 | 70 | 296 | 5.0 | 14.0 | 0.00 | 0.00 | 0.00 | 29 | 1003.1 |
| 20260503201848 | 70 | 317 | 5.0 | 15.0 | 0.00 | 0.00 | 0.00 | 28 | 1003.1 |
| 20260503201341 | 70 | 308 | 4.0 | 15.0 | 0.00 | 0.00 | 0.00 | 28 | 1003.1 |
| 20260503200837 | 70 | 293 | 4.0 | 11.0 | 0.00 | 0.00 | 0.00 | 29 | 1003.2 |
| 20260503200337 | 69 | 315 | 5.0 | 12.0 | 0.00 | 0.00 | 0.00 | 28 | 1003.2 |
| 20260503195834 | 69 | 321 | 6.0 | 13.0 | 0.00 | 0.00 | 0.00 | 30 | 1003.3 |
| 20260503195333 | 69 | 288 | 6.0 | 14.0 | 0.00 | 0.00 | 0.00 | 27 | 1003.3 |
| 20260503194828 | 70 | 289 | 5.0 | 14.0 | 0.00 | 0.00 | 0.00 | 28 | 1003.4 |
| 20260503194548 | 70 | 277 | 5.0 | 16.0 | 0.00 | 0.00 | 0.00 | 28 | 1003.2 |
| 20260503193826 | 70 | 310 | 5.0 | 16.0 | 0.00 | 0.00 | 0.00 | 29 | 1003.3 |
| 20260503193321 | 70 | 291 | 4.0 | 12.0 | 0.00 | 0.00 | 0.00 | 30 | 1003.3 |
| 20260503192821 | 70 | 285 | 5.0 | 18.0 | 0.00 | 0.00 | 0.00 | 29 | 1003.4 |
| 20260503192536 | 70 | 14 | 5.0 | 18.0 | 0.00 | 0.00 | 0.00 | 34 | 1003.4 |
| 20260503191817 | 69 | 335 | 6.0 | 19.0 | 0.00 | 0.00 | 0.00 | 34 | 1003.5 |
| 20260503191319 | 69 | 325 | 7.0 | 19.0 | 0.00 | 0.00 | 0.00 | 32 | 1003.6 |
| 20260503190817 | 69 | 306 | 6.0 | 12.0 | 0.00 | 0.00 | 0.00 | 34 | 1003.6 |
| 20260503190315 | 70 | 286 | 5.0 | 14.0 | 0.00 | 0.00 | 0.00 | 34 | 1003.6 |
| 20260503185813 | 70 | 309 | 5.0 | 14.0 | 0.00 | 0.00 | 0.00 | 36 | 1003.6 |
| 20260503185314 | 70 | 306 | 6.0 | 15.0 | 0.00 | 0.00 | 0.00 | 38 | 1003.8 |
| 20260503185032 | 69 | 337 | 6.0 | 15.0 | 0.00 | 0.00 | 0.00 | 37 | 1003.8 |
| 20260503184306 | 69 | 294 | 5.0 | 13.0 | 0.00 | 0.00 | 0.00 | 35 | 1003.6 |
| 20260503183807 | 70 | 294 | 5.0 | 16.0 | 0.00 | 0.00 | 0.00 | 34 | 1003.6 |
| 20260503183306 | 70 | 15 | 5.0 | 16.0 | 0.00 | 0.00 | 0.00 | 34 | 1003.8 |
| 20260503182806 | 69 | 5 | 4.0 | 15.0 | 0.00 | 0.00 | 0.00 | 34 | 1003.8 |
| 20260503182256 | 69 | 286 | 4.0 | 12.0 | 0.00 | 0.00 | 0.00 | 33 | 1003.8 |
| 20260503181754 | 69 | 255 | 5.0 | 17.0 | 0.00 | 0.00 | 0.00 | 33 | 1003.9 |
| 20260503181256 | 69 | 325 | 6.0 | 17.0 | 0.00 | 0.00 | 0.00 | 31 | 1004.1 |
| 20260503181017 | 69 | 289 | 7.0 | 17.0 | 0.00 | 0.00 | 0.00 | 40 | 1004.1 |
| 20260503180507 | 69 | 332 | 7.0 | 17.0 | 0.00 | 0.00 | 0.00 | 40 | 1004.1 |
| 20260503175751 | 69 | 323 | 6.0 | 16.0 | 0.00 | 0.00 | 0.00 | 39 | 1004.1 |
| 20260503175248 | 69 | 301 | 6.0 | 16.0 | 0.00 | 0.00 | 0.00 | 41 | 1003.9 |
| 20260503174748 | 69 | 331 | 7.0 | 15.0 | 0.00 | 0.00 | 0.00 | 39 | 1004.2 |
| 20260503174247 | 69 | 339 | 5.0 | 16.0 | 0.00 | 0.00 | 0.00 | 41 | 1004.2 |
| 20260503174008 | 69 | 0 | 4.0 | 13.0 | 0.00 | 0.00 | 0.00 | 41 | 1004.2 |
| 20260503173240 | 69 | 17 | 5.0 | 12.0 | 0.00 | 0.00 | 0.00 | 35 | 1004.2 |
| 20260503172740 | 69 | 22 | 6.0 | 13.0 | 0.00 | 0.00 | 0.00 | 44 | 1004.1 |
| 20260503172235 | 69 | 312 | 6.0 | 13.0 | 0.00 | 0.00 | 0.00 | 41 | 1004.1 |
| 20260503171733 | 68 | 310 | 6.0 | 13.0 | 0.00 | 0.00 | 0.00 | 40 | 1004.2 |
| 20260503171230 | 68 | 312 | 5.0 | 12.0 | 0.00 | 0.00 | 0.00 | 43 | 1004.3 |
| 20260503170730 | 68 | 355 | 5.0 | 12.0 | 0.00 | 0.00 | 0.00 | 43 | 1004.3 |
| 20260503170226 | 68 | 5 | 5.0 | 14.0 | 0.00 | 0.00 | 0.00 | 43 | 1004.3 |
| 20260503160159 | 66 | 5 | 6.0 | 14.0 | 0.00 | 0.00 | 0.00 | 50 | 1004.1 |